Orbital Elements at Epoch 2459200.5 (2020-Dec-17.0) TDB
Reference: JPL 18 (heliocentric ecliptic J2000)
Element | Value | Uncertainty (1-sigma) | Units |
e | .1479779646528497 | 5.9329e-08 | |
a | 3.151369399273695 | 2.8552e-08 | au |
q | 2.685036169699901 | 1.8825e-07 | au |
i | 10.76871814196097 | 5.0707e-06 | deg |
node | 235.3770476512976 | 3.3738e-05 | deg |
peri | 115.7842909085918 | 3.8276e-05 | deg |
M | 82.95611039892923 | 1.707e-05 | deg |
tp | 2458729.638396396894 (2019-Sep-03.13839640) | 9.6898e-05 | TDB |
period | 2043.371808079685 5.59 | 2.777e-05 7.603e-08 | d yr |
n | .1761793906407664 | 2.3944e-09 | deg/d |
Q | 3.61770262884749 | 3.2778e-08 | au |
|
| | Orbit Determination Parameters
Additional Information
|